カタログに戻る

STARLINK-35576

運用中通信VLEO
NORAD 66137·PAYLOAD·🇺🇸 United States

打ち上げ Oct 22, 2025 から Vandenberg Space Force Base

Loading…

次のパス (今後24時間)

TLE

最新Source: CelesTrak SupGP

元期: Sep 14, 2026, 15:07 UTC

1 66137C 25237Z   26257.63034722 -.00029807  00000+0 -88091-3 0  2574
2 66137  53.1570 238.8979 0001172  92.9419 209.9566 15.34396869    19

AllMySatでSTARLINK-35576をリアルタイム追跡

Download on the App Store